Location: Heidgraben
(53.7081°N, 9.6576°E)
Time: 07:45:57
(UTC+00:00)

Cosmos 2333 Rocket - Pass Details

Date: 05 July 2020
Orbit: 837 x 864 km, 70.8° (Epoch: 14 August)

Event Time Altitude Azimuth Distance (km) Brightness Sun altitude
Rises 22:25:21 0° 232° (SW) 3,402 5.1 -12.5°
Reaches altitude 10° 22:27:53 10° 238° (WSW) 2,474 4.5 -12.6°
Maximum altitude 22:33:22 48° 312° (NW) 1,111 3.2 -12.8°
Drops below altitude 10° 22:38:56 10° 27° (NNE) 2,505 5.5 -12.9°
Sets 22:41:31 0° 33° (NNE) 3,448 6.1 -13.0°
